Wetbulb
38.81 39.54 40.63 41.83 42.60 42.42 42.02 42.02 42.98 43.20 42.65 41.32 41.30 41.15 41.07 41.33 41.43 41.83 42.20 42.21 42.42 42.60 42.82 43.05 43.32 43.41 43.29 42.74 42.64 42.64 42.80 42.91 43.04 43.71 44.46 44.66 44.32 44.19 44.07 44.02 43.94 43.73 43.55 43.64 43.59 43.64 43.64 43.59 43.74 44.03 44.33 44.44 44.26 43.85 43.47 43.56 42.88 42.73 42.80 42.76 42.95 42.73 42.50 42.74 42.59 42.37 42.14 42.15 42.63
38.47 39.04 40.36 42.66 43.36 42.82 41.96 41.83 42.29 42.45 42.23 41.46 41.56 41.24 41.10 41.46 41.60 41.86 42.01 41.87 42.37 42.67 42.82 43.06 43.01 42.78 42.53 42.38 42.70 42.74 42.62 42.66 42.74 43.20 43.71 43.76 43.85 44.01 44.14 44.24 44.23 44.31 44.31 44.14 43.96 44.18 44.32 44.12 44.12 44.35 44.60 44.72 44.47 44.14 43.92 44.09 43.47 43.28 43.08 42.69 43.19 43.29 43.33 43.42 43.28 43.07 42.97 42.99 43.16
38.30 38.75 39.27 39.65 39.69 40.05 40.59 41.03 40.91 40.28 39.88 40.55 41.19 41.30 41.35 41.67 41.85 42.03 42.22 42.27 42.15 42.23 42.49 42.83 42.76 42.37 42.05 42.11 42.37 42.49 42.57 42.61 42.69 42.88 43.18 43.45 43.59 43.92 44.24 44.53 44.46 45.00 45.54 45.49 45.09 44.98 45.01 44.83 44.93 45.13 45.23 45.08 44.74 44.39 44.32 44.25 44.46 44.24 43.87 43.50 43.90 44.11 44.14 44.18 43.90 43.78 43.84 44.00 43.58
38.03 38.22 38.48 38.64 38.31 38.31 39.03 40.62 40.30 40.04 40.16 41.15 40.82 40.79 41.10 41.75 42.02 42.13 42.15 41.94 41.69 41.88 42.24 42.39 42.59 42.65 42.64 42.60 42.43 42.39 42.66 43.24 43.17 43.12 43.02 43.28 43.39 43.64 44.01 44.24 44.21 44.65 45.09 45.23 45.05 44.89 44.83 44.79 45.08 45.13 45.09 44.68 44.35 44.27 44.45 44.78 45.01 44.79 44.54 44.32 44.50 44.50 44.41 44.46 44.15 44.12 44.10 43.97 43.51
38.10 38.39 38.79 39.15 38.56 38.79 39.34 39.49 39.73 40.03 40.52 41.11 41.45 41.57 41.66 41.79 41.95 41.90 41.87 42.06 42.15 42.36 42.38 41.96 42.43 42.84 43.09 42.78 42.33 42.14 42.17 42.51 43.73 43.59 43.07 42.91 42.91 43.14 43.39 43.64 43.73 44.12 44.61 44.86 44.75 44.68 44.69 44.62 44.98 45.04 44.98 44.72 44.69 44.67 44.83 44.94 44.83 44.64 44.57 44.71 44.83 44.71 44.63 44.50 44.34 44.28 44.18 44.07 43.49
38.33 38.49 38.71 39.22 38.66 39.14 39.80 40.16 39.58 39.96 40.68 41.19 40.93 40.94 41.28 41.91 42.11 42.06 41.89 41.93 42.06 42.05 42.04 42.45 43.06 43.39 43.27 42.46 42.11 41.91 41.94 41.94 42.52 42.49 42.22 42.14 42.40 42.58 42.69 42.83 43.00 43.62 44.24 44.49 44.48 44.54 44.54 44.58 44.98 45.07 45.10 45.05 44.78 44.77 44.96 45.05 44.71 44.50 44.29 44.29 44.65 44.82 44.82 44.47 44.41 44.37 44.34 44.27 43.52
38.41 38.67 39.00 39.32 39.09 39.63 40.10 39.89 40.07 40.27 40.54 40.97 40.42 40.40 40.62 41.16 41.28 41.18 41.16 41.61 41.95 42.16 42.52 43.43 43.11 42.82 42.37 41.69 41.57 41.49 41.56 41.75 41.79 41.64 41.52 41.79 41.85 41.97 42.08 42.35 42.48 43.09 43.80 44.10 44.16 44.11 44.07 44.17 44.46 44.82 45.13 45.47 45.03 44.65 44.44 44.77 44.72 44.46 44.16 43.81 44.29 44.55 44.61 44.32 44.36 44.54 44.45 44.27 43.66
38.71 38.93 39.33 39.76 39.80 39.74 39.58 39.24 39.91 40.18 40.53 41.20 40.99 40.61 40.44 40.59 40.55 40.75 41.05 41.46 41.84 42.15 42.48 43.01 41.90 41.34 41.15 41.03 41.03 41.05 41.13 41.05 41.20 41.28 41.36 41.47 41.33 41.32 41.47 41.78 41.99 42.33 42.78 43.32 43.40 43.39 43.29 43.45 43.68 43.98 44.21 44.62 44.58 44.36 43.96 43.71 43.86 43.86 43.79 43.51 43.92 44.20 44.28 44.20 44.10 44.16 44.14 44.01 43.83
39.24 39.35 39.59 39.77 39.68 39.66 39.64 39.55 39.41 39.76 40.28 40.61 40.53 40.47 40.52 40.84 40.87 40.95 41.18 41.52 42.15 42.38 42.34 42.17 41.54 41.10 40.76 40.56 40.74 40.91 41.12 41.29 41.11 41.13 41.15 41.09 40.94 40.94 41.14 41.37 41.48 41.60 41.83 42.23 42.35 42.40 42.44 42.74 42.86 43.08 43.38 43.92 44.07 44.13 43.86 43.30 42.97 42.97 43.22 43.56 43.81 44.02 44.27 44.53 44.36 44.02 43.68 43.45 43.53
39.27 39.38 39.48 39.74 39.43 39.70 40.03 39.79 39.87 39.85 39.89 40.22 40.26 40.42 41.03 42.46 42.22 41.84 41.60 42.14 42.53 42.31 41.73 41.45 41.22 40.99 40.76 40.58 40.75 40.93 41.14 41.32 41.32 41.33 41.22 41.35 41.37 41.11 40.85 40.98 40.99 41.07 41.30 41.58 41.78 41.70 41.79 42.05 42.02 42.07 42.28 42.85 43.14 43.35 43.48 43.37 42.85 42.56 42.81 43.52 43.85 43.98 44.11 44.28 44.36 44.15 43.76 43.26 42.97
39.17 39.48 39.77 40.25 39.81 40.19 40.54 39.77 40.36 40.62 40.66 40.66 40.58 40.62 41.04 41.85 41.60 41.56 41.77 42.22 41.84 41.35 40.97 41.22 41.14 41.06 41.01 41.11 41.30 41.40 41.63 41.71 41.72 41.54 41.32 41.22 41.28 41.05 40.82 40.86 40.79 40.83 40.95 41.23 41.43 41.52 41.52 41.64 41.41 41.29 41.33 41.93 42.06 42.38 42.67 42.88 42.72 42.56 42.60 43.13 43.43 43.51 43.55 43.80 44.02 44.06 43.84 43.38 42.63
39.61 39.84 40.11 40.30 40.29 40.29 40.10 39.85 40.57 40.95 40.99 40.78 40.81 40.80 40.92 40.91 40.86 41.29 41.75 41.65 41.25 41.17 41.27 41.52 41.55 41.54 41.67 41.95 41.92 42.11 42.31 42.05 41.84 41.67 41.49 41.28 41.09 40.98 40.91 40.95 40.95 40.96 40.91 40.99 41.24 41.44 41.41 41.21 41.01 40.85 40.81 40.97 41.57 41.98 42.31 42.35 42.39 42.43 42.55 42.79 42.91 42.95 42.99 43.25 43.55 43.76 43.80 43.54 42.90
39.99 40.25 40.44 40.56 40.53 40.25 40.02 40.24 40.80 41.07 41.10 40.90 40.94 41.15 41.38 41.52 41.75 42.15 42.28 41.79 41.85 42.15 42.48 42.54 42.65 42.58 42.46 42.53 42.52 42.52 42.52 42.50 42.30 42.17 42.07 41.79 41.68 41.46 41.23 41.15 41.12 41.00 40.92 41.04 41.20 41.25 41.17 40.93 40.77 40.57 40.57 40.77 41.29 41.70 42.02 42.26 42.67 42.83 42.86 42.85 42.88 42.83 42.83 42.85 43.16 43.37 43.46 43.40 43.13
40.04 40.23 40.49 40.61 40.44 40.49 40.64 40.63 41.09 41.42 41.39 41.10 41.17 41.45 41.89 42.23 42.98 43.48 43.56 42.95 42.84 42.91 42.94 43.04 43.31 43.46 43.36 43.12 42.99 42.93 42.90 42.93 42.68 42.37 42.17 42.07 41.92 41.58 41.31 41.19 41.12 41.04 41.08 41.20 41.25 41.01 40.77 40.69 40.61 40.57 40.53 40.61 40.89 41.29 41.74 42.30 42.92 43.20 43.35 43.28 43.18 43.18 43.14 43.24 43.30 43.31 43.35 43.25 43.10
39.99 40.17 40.36 40.51 40.45 40.66 40.87 40.85 41.38 41.61 41.55 41.28 41.60 42.20 42.87 43.45 44.06 44.36 44.16 43.47 43.21 43.12 43.15 43.03 43.22 43.51 43.75 43.55 43.40 43.13 42.94 42.78 42.50 42.14 41.85 41.78 41.62 41.47 41.35 41.31 41.19 41.20 41.24 41.28 41.21 41.05 40.81 40.65 40.69 40.61 40.57 40.45 40.61 40.96 41.44 41.92 42.49 43.03 43.36 43.44 43.38 43.41 43.57 43.70 43.71 43.72 43.72 43.58 43.25
40.00 40.18 40.37 40.45 40.45 40.52 40.78 40.89 41.53 41.75 41.77 41.85 42.16 42.80 43.44 43.69 43.98 44.06 43.82 43.31 43.12 43.14 42.99 42.87 42.85 43.06 43.31 43.64 43.47 43.04 42.49 42.22 41.92 41.70 41.43 41.39 41.39 41.43 41.38 41.34 41.34 41.43 41.36 41.32 41.33 41.29 41.25 41.13 41.01 40.89 40.76 40.56 40.71 41.11 41.63 41.95 42.14 42.59 43.05 43.44 43.60 43.76 44.01 44.31 44.22 44.09 44.05 44.00 43.81
39.83 40.01 40.20 40.24 40.21 40.25 40.43 40.69 41.23 41.59 41.72 41.90 42.11 42.49 42.83 42.97 43.08 43.24 43.31 43.23 42.88 42.56 42.38 42.42 42.65 42.69 42.69 42.88 42.85 42.51 42.18 41.88 41.73 41.62 41.54 41.50 41.50 41.50 41.50 41.46 41.62 41.63 41.64 41.61 41.45 41.37 41.29 41.29 41.33 41.29 41.12 40.96 41.03 41.34 41.76 42.23 42.42 42.66 43.00 43.65 44.05 44.22 44.35 44.66 44.39 44.17 44.03 43.95 43.89
39.69 39.84 39.95 39.99 39.92 40.04 40.15 40.41 40.77 41.02 41.28 41.41 41.62 41.76 41.87 42.03 42.00 42.16 42.43 42.66 42.36 42.03 41.90 42.05 42.28 42.23 42.01 41.70 41.87 42.11 42.23 41.92 41.85 41.73 41.77 41.77 41.65 41.62 41.55 41.55 41.79 41.95 41.97 41.90 41.74 41.62 41.45 41.41 41.49 41.49 41.53 41.45 41.41 41.47 41.69 42.14 42.53 42.77 42.98 43.51 43.95 44.12 44.21 44.30 44.03 43.94 43.76 43.59 43.72
39.47 39.62 39.70 39.70 39.74 39.86 40.08 40.42 40.57 40.67 40.73 40.91 41.10 41.17 41.21 41.30 41.30 41.44 41.66 41.77 42.05 41.86 41.73 41.62 41.72 41.62 41.53 41.36 41.45 41.96 42.36 42.17 41.90 41.86 41.86 41.90 41.83 41.64 41.57 41.57 41.85 41.97 42.02 42.06 41.94 41.82 41.78 41.70 41.74 41.70 41.62 41.57 41.53 41.53 41.51 41.65 42.14 42.52 42.94 43.29 43.64 43.95 44.08 43.99 43.86 43.72 43.76 43.63 43.68
39.26 39.29 39.45 39.56 39.67 39.74 39.89 40.12 40.22 40.26 40.37 40.59 40.60 40.57 40.72 40.91 41.06 41.06 41.06 41.24 41.62 41.59 41.41 41.16 41.11 41.09 41.18 41.27 41.31 41.59 42.03 42.34 42.06 41.99 41.91 41.99 41.91 41.85 41.77 41.94 42.02 42.14 42.27 42.31 42.27 42.15 42.11 41.98 41.94 41.82 41.74 41.74 41.74 41.57 41.56 41.51 41.84 42.21 42.65 43.05 43.52 43.78 43.91 43.96 43.95 43.90 43.85 43.85 43.81
39.03 39.15 39.33 39.52 39.55 39.55 39.66 39.85 39.92 40.04 40.04 40.16 40.13 40.28 40.47 40.73 40.85 40.82 40.82 41.08 41.20 41.21 40.99 40.86 40.83 40.92 41.04 41.17 41.29 41.37 41.69 42.36 42.20 42.11 42.03 42.19 42.20 42.28 42.41 42.61 42.63 42.67 42.72 42.72 42.60 42.48 42.35 42.18 42.06 41.93 41.89 41.93 41.88 41.78 41.69 41.71 41.80 42.06 42.39 42.92 43.39 43.74 43.87 44.06 44.18 44.17 44.12 43.98 43.89
39.00 39.15 39.33 39.40 39.40 39.51 39.66 39.78 39.78 39.78 39.82 39.83 39.98 40.17 40.36 40.40 40.44 40.56 40.71 40.90 40.92 40.86 40.84 40.89 41.17 41.25 41.37 41.45 41.45 41.49 41.69 42.17 42.09 42.13 42.28 42.39 42.51 42.72 42.97 43.18 42.92 42.80 42.77 42.72 42.68 42.55 42.43 42.42 42.30 42.13 41.99 41.91 41.85 41.84 41.92 41.98 42.03 42.23 42.47 42.82 43.25 43.51 43.82 44.05 44.13 44.30 44.30 44.16 43.98
38.88 39.11 39.25 39.43 39.36 39.63 39.86 39.75 39.52 39.45 39.49 39.60 39.68 39.80 39.99 39.99 40.15 40.26 40.45 40.65 40.97 41.15 41.32 41.61 41.81 41.89 41.81 41.81 41.69 41.57 41.49 41.57 41.69 41.89 42.09 42.33 42.49 42.78 43.03 43.12 42.89 42.68 42.60 42.68 42.63 42.54 42.41 42.37 42.29 42.12 41.96 41.75 41.53 41.56 41.60 41.68 41.88 42.02 42.16 42.47 42.80 43.10 43.36 43.64 43.77 43.95 44.12 44.16 44.02
38.77 38.92 39.21 39.61 39.21 39.03 39.03 39.03 38.99 39.00 39.07 39.23 39.38 39.46 39.58 39.73 39.92 40.15 40.43 40.67 41.07 41.47 41.80 42.20 42.24 42.17 42.01 41.87 41.63 41.44 41.25 41.13 41.17 41.37 41.66 42.06 42.35 42.64 42.80 42.89 42.81 42.80 42.80 42.88 43.39 43.64 43.60 43.25 42.82 42.60 42.51 42.38 42.12 42.08 42.03 41.91 41.91 41.86 41.93 42.03 42.25 42.45 42.62 42.90 43.17 43.31 43.48 43.68 43.86
38.54 38.66 38.80 38.84 38.61 38.50 38.54 38.58 38.58 38.66 38.81 39.00 39.23 39.27 39.39 39.58 39.89 40.28 40.71 41.11 41.56 41.81 41.93 41.86 41.89 41.88 41.79 41.65 41.38 41.36 41.25 41.13 41.09 41.12 41.36 41.73 42.06 42.35 42.60 42.68 42.84 42.88 43.09 43.64 45.52 46.55 46.81 46.21 45.31 44.65 44.11 43.88 43.52 43.39 43.26 43.05 42.79 42.37 42.09 41.88 41.86 41.80 41.79 41.95 42.22 42.50 42.72 42.96 43.22
38.31 38.28 38.16 38.09 38.09 38.01 38.05 38.09 38.28 38.50 38.69 38.92 39.00 39.16 39.31 39.74 40.28 40.76 41.16 41.45 41.65 41.66 41.58 41.45 41.41 41.68 41.86 41.50 41.35 41.16 41.17 41.17 41.25 41.27 41.37 41.57 41.78 42.08 42.29 42.50 42.67 42.75 43.30 44.66 46.47 47.43 47.86 47.94 47.55 46.70 45.74 44.93 44.61 44.20 43.88 43.70 43.50 43.12 42.61 42.02 41.69 41.43 41.20 41.14 41.43 41.67 41.95 42.32 42.61
38.01 37.78 37.71 37.78 37.67 37.63 37.78 38.09 38.39 38.50 38.62 38.73 38.85 39.12 39.55 40.09 40.76 41.12 41.33 41.41 41.37 41.37 41.33 41.21 41.13 41.64 42.04 41.56 41.09 40.89 40.85 41.09 41.24 41.39 41.46 41.57 41.72 41.84 42.00 42.27 42.48 42.74 43.55 45.57 47.09 47.87 48.31 48.57 48.55 48.12 47.23 45.87 45.32 44.74 44.19 43.78 43.69 43.52 43.13 42.48 42.01 41.55 41.20 40.91 41.00 41.24 41.57 41.86 42.08
37.51 37.44 37.33 37.33 37.25 37.44 37.74 38.12 38.24 38.35 38.50 38.69 38.96 39.47 40.02 40.45 40.73 40.97 41.13 41.13 41.17 41.09 41.05 41.01 41.24 41.49 41.53 41.21 40.81 40.72 40.80 40.96 41.16 41.39 41.50 41.60 41.75 41.82 41.89 42.19 42.32 43.14 44.48 46.57 47.62 48.23 48.67 49.07 49.32 49.27 48.70 47.46 46.09 45.23 44.69 44.14 43.87 43.73 43.51 43.11 42.62 42.23 41.76 41.50 41.43 41.53 41.69 41.68 41.88
37.05 36.98 36.94 36.94 37.16 37.43 37.74 37.96 38.03 38.22 38.53 38.92 39.35 39.78 40.10 40.25 40.45 40.64 40.84 41.00 40.89 40.77 40.73 40.89 41.29 41.33 41.09 40.75 40.75 40.79 40.91 40.99 41.16 41.31 41.38 41.39 41.48 41.59 41.75 42.15 42.53 43.71 45.48 47.46 48.07 48.46 48.86 49.16 49.51 49.67 49.58 48.84 46.98 45.86 45.18 44.51 44.14 43.82 43.64 43.51 43.28 43.02 42.71 42.54 42.49 42.45 42.41 42.37 42.45
36.86 36.82 36.89 36.88 37.15 37.41 37.64 37.86 38.02 38.37 38.76 39.27 39.55 39.70 39.70 39.81 40.12 40.39 40.55 40.64 40.48 40.61 40.85 41.13 41.17 40.92 40.66 40.61 40.73 40.81 40.80 40.87 41.05 41.16 41.15 41.02 41.11 41.33 41.86 42.70 42.86 43.83 45.38 47.42 48.03 48.47 48.77 49.08 49.33 49.46 49.49 49.14 47.67 46.58 45.64 44.96 44.42 44.05 43.86 43.69 43.73 43.60 43.47 43.29 43.20 43.07 43.03 43.12 43.22
36.69 36.76 36.83 36.97 37.15 37.30 37.61 37.88 38.15 38.39 38.71 39.03 39.18 39.26 39.33 39.47 39.82 40.19 40.43 40.52 40.56 41.05 41.37 41.37 40.83 40.57 40.48 40.72 40.75 40.78 40.75 40.91 40.95 41.07 41.02 40.96 41.54 41.90 42.23 42.48 42.78 43.75 45.30 47.28 47.94 48.47 48.69 49.04 49.20 49.33 49.32 49.28 47.94 46.76 45.60 45.06 44.74 44.28 43.95 43.86 43.91 43.87 43.69 43.38 43.16 43.03 43.03 43.03 42.95
36.59 36.73 36.83 36.97 37.04 37.26 37.58 37.85 38.13 38.37 38.53 38.57 38.73 38.88 39.15 39.41 39.86 40.26 40.59 40.84 40.96 40.96 40.95 40.73 40.44 40.25 40.28 40.46 40.57 40.59 40.74 40.77 40.93 41.22 41.47 41.62 41.70 41.86 42.16 42.60 42.81 43.83 45.38 47.37 47.94 48.38 48.73 48.94 49.21 49.25 49.37 49.37 48.19 46.62 45.29 44.61 44.60 44.33 44.05 44.00 43.82 43.46 43.33 43.57 43.48 43.17 42.90 42.90 42.76
36.51 36.69 36.79 36.84 36.99 37.26 37.54 37.82 37.99 38.19 38.24 38.31 38.58 38.86 39.29 39.65 39.98 40.31 40.56 40.84 40.84 40.70 40.43 40.24 40.19 40.12 40.13 40.27 40.36 40.55 40.75 40.96 41.36 41.88 42.39 42.64 42.37 42.36 42.53 42.93 43.02 44.23 45.96 47.51 48.03 48.38 48.64 48.85 49.07 49.20 49.37 49.46 48.02 46.67 45.38 44.52 44.56 44.37 44.05 43.96 43.91 43.78 43.70 43.80 43.62 43.35 43.08 42.90 43.07
36.46 36.56 36.70 36.75 36.98 37.22 37.38 37.63 37.85 37.93 38.04 38.16 38.59 39.04 39.45 39.73 39.89 40.01 40.26 40.75 40.86 40.76 40.70 40.54 40.53 40.46 40.61 40.76 40.76 40.86 41.11 41.70 41.79 41.87 41.91 42.15 42.23 42.35 42.52 42.73 42.97 44.54 46.36 47.55 48.03 48.33 48.54 48.67 48.93 49.10 49.28 49.37 47.68 46.36 45.33 44.34 44.24 44.19 44.14 43.91 43.87 44.01 44.15 44.06 43.92 43.56 43.11 42.71 43.07
36.41 36.50 36.59 36.70 36.89 37.13 37.22 37.40 37.61 37.77 37.93 38.12 38.56 39.05 39.46 39.66 39.70 39.86 40.19 40.97 41.30 41.11 40.79 40.72 40.88 40.98 41.10 41.25 41.27 41.29 41.46 41.70 41.59 41.64 41.84 42.16 42.31 42.47 42.64 42.81 43.14 44.81 46.67 47.67 47.93 48.10 48.22 48.30 48.56 48.87 48.88 48.63 47.11 45.91 44.93 44.20 43.47 43.06 42.83 42.51 42.52 43.24 43.88 43.88 43.78 43.56 43.24 42.84 42.75
36.48 36.49 36.50 36.64 36.81 36.98 37.12 37.29 37.41 37.73 38.06 38.37 38.70 38.93 39.17 39.33 39.62 39.95 40.49 41.49 41.39 40.97 40.67 40.73 40.99 41.14 41.21 41.36 41.49 41.79 41.97 41.76 41.77 42.00 42.26 42.65 42.75 42.69 42.63 42.77 42.97 44.46 46.31 47.36 47.57 47.74 47.95 48.03 48.29 48.60 48.53 47.77 46.27 45.37 44.88 44.47 43.61 42.92 42.42 41.88 41.74 42.34 43.06 43.47 43.55 43.51 43.38 43.20 42.80
36.60 36.61 36.71 36.74 36.92 37.05 37.14 37.30 37.54 37.86 38.18 38.51 38.79 38.95 39.07 39.27 39.60 40.10 40.72 41.47 40.98 40.75 40.66 40.96 41.09 41.21 41.29 41.46 41.59 41.99 42.30 42.38 42.39 42.48 42.63 43.09 43.03 42.83 42.68 42.60 42.49 43.58 45.17 46.79 47.14 47.39 47.70 47.95 48.26 48.44 48.06 46.71 45.11 44.26 43.85 43.84 43.74 43.37 42.83 42.10 41.65 41.52 41.93 43.38 43.69 43.78 43.69 43.52 43.30
36.81 36.96 37.08 37.20 37.21 37.16 37.27 37.39 37.80 38.08 38.37 38.57 38.81 39.07 39.36 39.60 39.75 40.24 40.90 41.87 41.19 40.95 40.96 41.04 41.22 41.31 41.49 41.85 42.07 42.39 42.66 42.96 43.18 43.06 42.94 42.87 42.82 42.67 42.52 42.37 42.26 42.94 44.29 46.01 46.79 47.22 47.48 47.91 48.35 48.45 47.85 46.14 44.58 43.63 43.13 43.21 43.33 43.19 42.82 42.42 41.92 41.56 41.79 42.97 43.55 43.73 43.69 43.43 44.87
37.04 37.36 37.49 37.54 37.45 37.44 37.52 37.71 38.00 38.33 38.62 38.83 39.04 39.29 39.57 39.79 40.07 40.69 41.40 41.99 41.48 41.20 41.17 41.16 41.30 41.61 41.98 42.61 42.73 42.74 42.84 43.06 43.33 43.25 42.95 42.48 42.58 43.01 43.22 42.66 42.35 42.72 43.89 45.61 46.35 46.87 47.22 47.65 48.13 48.45 48.15 46.76 45.03 43.95 43.45 43.52 43.10 42.60 42.14 41.82 41.60 41.38 41.38 41.88 42.56 42.65 42.51 42.25 45.64
37.52 37.77 37.90 37.81 37.83 37.87 37.94 38.09 38.34 38.72 39.01 39.14 39.17 39.33 39.69 40.03 40.69 41.32 41.82 41.97 41.69 41.60 41.56 41.51 41.65 41.93 42.51 43.36 42.95 42.60 42.34 42.44 42.58 42.72 42.74 42.58 42.94 43.95 44.47 43.24 42.43 42.43 43.28 44.87 45.70 46.31 46.69 47.21 47.78 48.26 48.19 46.84 45.29 44.39 43.93 43.87 42.96 42.01 41.15 40.51 39.97 39.83 40.01 40.19 40.92 41.33 41.37 41.01 44.33
38.14 38.35 38.40 38.28 38.29 38.30 38.28 38.26 38.63 38.92 39.17 39.34 39.36 39.68 40.26 40.96 41.30 41.49 41.63 41.68 41.78 41.84 41.92 41.91 41.92 42.06 42.39 43.01 42.64 42.07 41.72 41.69 41.96 42.28 42.61 43.07 43.25 43.95 44.26 43.00 42.11 41.60 41.82 43.20 44.78 45.79 46.48 47.09 47.65 48.09 47.97 46.84 45.29 44.21 43.70 43.73 42.60 41.38 40.24 39.25 38.20 38.06 38.20 38.01 38.51 39.28 39.83 39.61 41.15
MSLP
1020.22 1020.14 1020.02 1019.90 1019.78 1019.70 1019.58 1019.46 1019.34 1019.22 1019.14 1019.10 1018.98 1018.86 1018.70 1018.62 1018.46 1018.30 1018.18 1018.10 1017.98 1017.78 1017.58 1017.46 1017.34 1017.22 1017.06 1016.98 1016.90 1016.86 1016.70 1016.58 1016.50 1016.42 1016.30 1016.14 1016.02 1015.90 1015.82 1015.70 1015.58 1015.46 1015.38 1015.26 1015.14 1015.06 1014.98 1014.86 1014.82 1014.70 1014.66 1014.58 1014.50 1014.42 1014.34 1014.30 1014.26 1014.18 1014.10 1014.02 1013.94 1013.86 1013.82 1013.74 1013.70 1013.62 1013.58 1013.58 1013.54
1020.14 1020.02 1019.86 1019.74 1019.62 1019.54 1019.46 1019.34 1019.22 1019.10 1019.02 1018.94 1018.82 1018.70 1018.58 1018.46 1018.34 1018.18 1018.02 1017.90 1017.74 1017.62 1017.46 1017.34 1017.18 1017.10 1016.98 1016.86 1016.74 1016.66 1016.58 1016.46 1016.34 1016.22 1016.10 1016.02 1015.86 1015.74 1015.62 1015.50 1015.42 1015.30 1015.18 1015.06 1014.98 1014.86 1014.74 1014.66 1014.62 1014.50 1014.38 1014.30 1014.26 1014.14 1014.10 1014.02 1014.06 1014.02 1013.94 1013.86 1013.78 1013.70 1013.58 1013.54 1013.42 1013.38 1013.38 1013.34 1013.30
1020.02 1019.86 1019.74 1019.70 1019.58 1019.50 1019.42 1019.26 1019.14 1019.02 1018.90 1018.78 1018.62 1018.54 1018.42 1018.30 1018.14 1018.02 1017.86 1017.74 1017.58 1017.50 1017.38 1017.18 1017.02 1016.90 1016.82 1016.70 1016.58 1016.50 1016.42 1016.30 1016.18 1016.06 1015.94 1015.86 1015.74 1015.58 1015.42 1015.34 1015.22 1015.10 1014.98 1014.86 1014.74 1014.66 1014.58 1014.46 1014.42 1014.30 1014.14 1014.02 1013.98 1013.90 1013.86 1013.82 1013.86 1013.82 1013.74 1013.70 1013.58 1013.54 1013.42 1013.34 1013.26 1013.14 1013.14 1013.14 1013.14
1019.86 1019.78 1019.70 1019.58 1019.50 1019.42 1019.30 1019.14 1019.02 1018.86 1018.74 1018.58 1018.46 1018.34 1018.26 1018.10 1018.02 1017.86 1017.70 1017.54 1017.42 1017.30 1017.18 1017.02 1016.90 1016.74 1016.62 1016.50 1016.42 1016.30 1016.18 1016.06 1015.98 1015.86 1015.74 1015.62 1015.54 1015.42 1015.30 1015.14 1015.06 1014.94 1014.82 1014.70 1014.58 1014.50 1014.38 1014.30 1014.18 1014.06 1013.94 1013.86 1013.78 1013.70 1013.62 1013.58 1013.58 1013.58 1013.54 1013.46 1013.42 1013.34 1013.26 1013.14 1013.02 1012.98 1012.94 1012.86 1012.86
1019.74 1019.66 1019.58 1019.46 1019.34 1019.26 1019.14 1018.98 1018.86 1018.70 1018.58 1018.42 1018.30 1018.18 1018.10 1017.94 1017.82 1017.66 1017.54 1017.42 1017.26 1017.10 1016.98 1016.86 1016.74 1016.58 1016.42 1016.30 1016.22 1016.14 1016.02 1015.90 1015.78 1015.70 1015.58 1015.42 1015.34 1015.26 1015.14 1015.02 1014.90 1014.82 1014.70 1014.58 1014.42 1014.30 1014.22 1014.14 1014.02 1013.86 1013.78 1013.74 1013.66 1013.54 1013.42 1013.34 1013.30 1013.30 1013.30 1013.30 1013.26 1013.18 1013.10 1012.98 1012.90 1012.86 1012.74 1012.70 1012.70
1019.62 1019.50 1019.42 1019.30 1019.18 1019.06 1018.90 1018.78 1018.66 1018.54 1018.42 1018.30 1018.14 1018.02 1017.90 1017.78 1017.62 1017.50 1017.34 1017.22 1017.06 1016.90 1016.78 1016.66 1016.50 1016.34 1016.22 1016.14 1016.02 1015.90 1015.82 1015.74 1015.62 1015.54 1015.42 1015.30 1015.14 1015.06 1014.98 1014.86 1014.74 1014.62 1014.54 1014.42 1014.30 1014.18 1014.10 1014.02 1013.86 1013.74 1013.66 1013.62 1013.58 1013.54 1013.42 1013.30 1013.18 1013.14 1013.14 1013.18 1013.18 1013.14 1013.02 1012.82 1012.70 1012.62 1012.58 1012.50 1012.50
1019.50 1019.38 1019.26 1019.14 1019.02 1018.86 1018.74 1018.62 1018.46 1018.34 1018.26 1018.14 1018.02 1017.90 1017.78 1017.62 1017.46 1017.34 1017.22 1017.02 1016.86 1016.70 1016.58 1016.42 1016.30 1016.18 1016.06 1015.98 1015.86 1015.74 1015.66 1015.58 1015.42 1015.34 1015.26 1015.14 1015.02 1014.90 1014.78 1014.70 1014.58 1014.50 1014.38 1014.30 1014.18 1014.10 1014.02 1013.90 1013.74 1013.62 1013.50 1013.46 1013.46 1013.46 1013.46 1013.42 1013.26 1013.10 1013.06 1013.10 1013.10 1013.14 1013.10 1012.90 1012.66 1012.50 1012.38 1012.30 1012.26
1019.34 1019.22 1019.10 1018.98 1018.86 1018.70 1018.58 1018.42 1018.30 1018.18 1018.06 1017.94 1017.86 1017.74 1017.58 1017.42 1017.30 1017.14 1017.02 1016.82 1016.66 1016.50 1016.38 1016.18 1016.10 1016.02 1015.86 1015.78 1015.70 1015.58 1015.46 1015.34 1015.22 1015.14 1015.02 1014.90 1014.82 1014.70 1014.58 1014.50 1014.42 1014.34 1014.26 1014.14 1014.06 1013.98 1013.86 1013.78 1013.66 1013.50 1013.42 1013.34 1013.30 1013.22 1013.26 1013.30 1013.30 1013.14 1013.02 1012.94 1012.90 1012.94 1012.98 1012.98 1012.82 1012.62 1012.42 1012.18 1012.10
1019.22 1019.06 1018.94 1018.82 1018.70 1018.58 1018.42 1018.30 1018.18 1018.10 1017.98 1017.78 1017.66 1017.54 1017.38 1017.22 1017.10 1016.94 1016.78 1016.62 1016.42 1016.30 1016.14 1016.02 1015.86 1015.78 1015.70 1015.58 1015.46 1015.38 1015.26 1015.14 1014.98 1014.86 1014.78 1014.70 1014.62 1014.54 1014.42 1014.34 1014.26 1014.18 1014.10 1014.02 1013.94 1013.86 1013.74 1013.62 1013.54 1013.38 1013.22 1013.14 1013.06 1013.02 1012.98 1013.02 1013.02 1012.94 1012.86 1012.74 1012.70 1012.66 1012.66 1012.70 1012.78 1012.82 1012.66 1012.38 1012.14
1019.14 1018.98 1018.82 1018.70 1018.58 1018.42 1018.30 1018.14 1018.02 1017.90 1017.82 1017.66 1017.50 1017.34 1017.18 1017.02 1016.86 1016.70 1016.58 1016.34 1016.18 1016.02 1015.94 1015.82 1015.70 1015.58 1015.50 1015.42 1015.30 1015.14 1015.02 1014.90 1014.78 1014.66 1014.58 1014.46 1014.38 1014.30 1014.26 1014.18 1014.10 1014.02 1013.90 1013.86 1013.78 1013.74 1013.62 1013.46 1013.34 1013.18 1013.10 1012.98 1012.86 1012.74 1012.66 1012.66 1012.66 1012.58 1012.54 1012.46 1012.42 1012.42 1012.34 1012.34 1012.42 1012.54 1012.62 1012.58 1012.30
1019.02 1018.86 1018.70 1018.58 1018.42 1018.26 1018.14 1018.02 1017.86 1017.74 1017.58 1017.46 1017.30 1017.14 1016.98 1016.82 1016.66 1016.50 1016.30 1016.14 1016.02 1015.86 1015.74 1015.58 1015.50 1015.38 1015.30 1015.14 1015.02 1014.86 1014.74 1014.66 1014.58 1014.42 1014.34 1014.22 1014.14 1014.06 1014.02 1013.94 1013.86 1013.74 1013.66 1013.58 1013.54 1013.46 1013.42 1013.30 1013.14 1013.02 1012.86 1012.70 1012.66 1012.54 1012.42 1012.38 1012.38 1012.30 1012.26 1012.22 1012.22 1012.14 1012.14 1012.06 1012.06 1012.10 1012.18 1012.30 1012.30
1018.86 1018.70 1018.58 1018.42 1018.30 1018.14 1018.02 1017.90 1017.74 1017.58 1017.42 1017.26 1017.10 1016.90 1016.74 1016.58 1016.46 1016.30 1016.06 1015.94 1015.82 1015.66 1015.50 1015.38 1015.30 1015.18 1015.02 1014.86 1014.74 1014.62 1014.50 1014.42 1014.30 1014.22 1014.14 1014.02 1013.86 1013.74 1013.70 1013.58 1013.50 1013.42 1013.34 1013.30 1013.26 1013.18 1013.14 1013.02 1012.90 1012.78 1012.62 1012.50 1012.42 1012.30 1012.22 1012.14 1012.14 1012.06 1012.02 1012.02 1012.02 1012.02 1011.86 1011.78 1011.78 1011.74 1011.78 1011.86 1011.98
1018.78 1018.58 1018.42 1018.30 1018.14 1018.02 1017.90 1017.74 1017.58 1017.42 1017.26 1017.06 1016.90 1016.70 1016.54 1016.34 1016.18 1016.02 1015.86 1015.74 1015.58 1015.42 1015.26 1015.10 1015.02 1014.90 1014.78 1014.62 1014.50 1014.42 1014.30 1014.18 1014.06 1013.98 1013.86 1013.74 1013.58 1013.46 1013.38 1013.30 1013.22 1013.14 1013.02 1012.98 1012.90 1012.86 1012.82 1012.70 1012.62 1012.54 1012.38 1012.26 1012.14 1012.02 1011.94 1011.86 1011.86 1011.78 1011.74 1011.78 1011.86 1011.86 1011.78 1011.66 1011.58 1011.50 1011.50 1011.54 1011.58
1018.66 1018.54 1018.34 1018.18 1018.06 1017.94 1017.78 1017.58 1017.42 1017.26 1017.06 1016.86 1016.70 1016.54 1016.30 1016.10 1015.94 1015.74 1015.58 1015.42 1015.30 1015.14 1015.02 1014.86 1014.74 1014.66 1014.58 1014.42 1014.30 1014.14 1014.02 1013.94 1013.86 1013.74 1013.58 1013.46 1013.34 1013.22 1013.14 1013.02 1012.94 1012.82 1012.70 1012.62 1012.58 1012.50 1012.46 1012.42 1012.30 1012.22 1012.10 1011.98 1011.86 1011.74 1011.70 1011.66 1011.58 1011.58 1011.54 1011.54 1011.58 1011.70 1011.70 1011.58 1011.46 1011.38 1011.30 1011.30 1011.30
1018.58 1018.42 1018.26 1018.14 1017.98 1017.86 1017.70 1017.50 1017.30 1017.10 1016.90 1016.70 1016.54 1016.34 1016.14 1015.90 1015.66 1015.50 1015.38 1015.26 1015.14 1015.02 1014.86 1014.70 1014.58 1014.42 1014.34 1014.26 1014.10 1013.98 1013.86 1013.74 1013.62 1013.50 1013.38 1013.26 1013.14 1013.02 1012.90 1012.74 1012.62 1012.50 1012.42 1012.30 1012.22 1012.14 1012.14 1012.02 1011.98 1011.86 1011.78 1011.66 1011.58 1011.46 1011.42 1011.38 1011.34 1011.30 1011.30 1011.22 1011.22 1011.30 1011.38 1011.42 1011.30 1011.18 1011.06 1011.02 1011.02
1018.46 1018.30 1018.14 1018.02 1017.86 1017.74 1017.58 1017.42 1017.18 1017.02 1016.82 1016.62 1016.42 1016.22 1016.02 1015.78 1015.58 1015.46 1015.34 1015.18 1015.02 1014.90 1014.74 1014.62 1014.42 1014.30 1014.14 1014.02 1013.94 1013.82 1013.66 1013.54 1013.42 1013.30 1013.18 1013.02 1012.86 1012.74 1012.58 1012.46 1012.34 1012.18 1012.10 1012.02 1011.90 1011.78 1011.74 1011.66 1011.62 1011.58 1011.46 1011.38 1011.30 1011.18 1011.10 1011.06 1011.02 1010.98 1010.94 1010.86 1010.86 1010.86 1010.94 1011.02 1011.02 1010.94 1010.86 1010.78 1010.78
1018.34 1018.18 1018.06 1017.98 1017.82 1017.62 1017.46 1017.30 1017.14 1016.94 1016.74 1016.54 1016.34 1016.18 1016.02 1015.82 1015.62 1015.46 1015.30 1015.14 1014.98 1014.78 1014.62 1014.50 1014.34 1014.18 1014.02 1013.86 1013.74 1013.62 1013.50 1013.34 1013.22 1013.10 1012.94 1012.78 1012.62 1012.42 1012.30 1012.18 1012.02 1011.90 1011.82 1011.74 1011.58 1011.46 1011.38 1011.30 1011.26 1011.18 1011.14 1011.06 1010.98 1010.86 1010.82 1010.74 1010.70 1010.66 1010.62 1010.58 1010.58 1010.58 1010.58 1010.58 1010.62 1010.62 1010.58 1010.54 1010.58
1018.30 1018.10 1017.94 1017.86 1017.74 1017.58 1017.42 1017.22 1017.06 1016.86 1016.70 1016.46 1016.30 1016.14 1015.98 1015.82 1015.66 1015.42 1015.26 1015.10 1014.90 1014.70 1014.54 1014.34 1014.22 1014.06 1013.86 1013.74 1013.58 1013.46 1013.34 1013.14 1012.98 1012.82 1012.70 1012.50 1012.34 1012.18 1012.06 1011.90 1011.74 1011.62 1011.54 1011.42 1011.30 1011.18 1011.06 1011.02 1010.90 1010.86 1010.78 1010.70 1010.66 1010.58 1010.50 1010.42 1010.42 1010.38 1010.34 1010.30 1010.30 1010.30 1010.22 1010.22 1010.26 1010.30 1010.30 1010.26 1010.26
1018.18 1018.02 1017.86 1017.78 1017.62 1017.46 1017.30 1017.14 1016.98 1016.78 1016.58 1016.42 1016.26 1016.10 1015.90 1015.74 1015.58 1015.38 1015.14 1014.98 1014.82 1014.66 1014.46 1014.22 1014.02 1013.86 1013.74 1013.58 1013.42 1013.26 1013.14 1012.98 1012.74 1012.58 1012.42 1012.22 1012.10 1011.98 1011.82 1011.66 1011.54 1011.38 1011.26 1011.14 1011.02 1010.90 1010.78 1010.70 1010.58 1010.50 1010.46 1010.42 1010.30 1010.26 1010.18 1010.14 1010.10 1010.06 1010.06 1010.02 1010.02 1009.94 1009.90 1009.86 1009.90 1009.94 1009.98 1009.94 1009.94
1018.10 1017.98 1017.86 1017.70 1017.54 1017.38 1017.18 1017.02 1016.86 1016.70 1016.50 1016.34 1016.14 1015.98 1015.82 1015.62 1015.42 1015.26 1015.06 1014.86 1014.70 1014.54 1014.34 1014.14 1013.90 1013.74 1013.58 1013.38 1013.22 1013.06 1012.86 1012.70 1012.54 1012.34 1012.14 1011.98 1011.86 1011.70 1011.54 1011.42 1011.26 1011.10 1010.98 1010.86 1010.74 1010.62 1010.50 1010.42 1010.30 1010.22 1010.14 1010.06 1009.98 1009.86 1009.82 1009.78 1009.74 1009.74 1009.74 1009.74 1009.66 1009.62 1009.58 1009.58 1009.58 1009.58 1009.62 1009.66 1009.66
1018.02 1017.86 1017.74 1017.58 1017.42 1017.26 1017.06 1016.90 1016.74 1016.58 1016.38 1016.18 1016.02 1015.86 1015.66 1015.46 1015.30 1015.14 1014.94 1014.74 1014.54 1014.34 1014.14 1013.98 1013.74 1013.58 1013.38 1013.18 1013.02 1012.82 1012.66 1012.46 1012.30 1012.10 1011.90 1011.70 1011.54 1011.42 1011.26 1011.14 1010.98 1010.82 1010.70 1010.58 1010.42 1010.34 1010.26 1010.14 1010.02 1009.90 1009.86 1009.74 1009.66 1009.58 1009.50 1009.46 1009.42 1009.42 1009.42 1009.38 1009.38 1009.30 1009.30 1009.30 1009.30 1009.30 1009.30 1009.30 1009.34
1017.94 1017.78 1017.58 1017.42 1017.30 1017.14 1016.98 1016.78 1016.58 1016.42 1016.26 1016.06 1015.86 1015.70 1015.46 1015.30 1015.14 1014.98 1014.78 1014.58 1014.38 1014.14 1013.98 1013.78 1013.58 1013.38 1013.18 1012.98 1012.74 1012.62 1012.46 1012.18 1012.02 1011.82 1011.62 1011.42 1011.22 1011.10 1010.98 1010.86 1010.70 1010.58 1010.42 1010.30 1010.18 1010.06 1009.94 1009.82 1009.70 1009.58 1009.50 1009.42 1009.30 1009.22 1009.14 1009.14 1009.14 1009.10 1009.10 1009.06 1009.02 1009.02 1009.02 1009.02 1009.02 1009.02 1009.02 1009.02 1009.02
1017.82 1017.66 1017.46 1017.30 1017.14 1016.98 1016.78 1016.58 1016.42 1016.30 1016.10 1015.86 1015.70 1015.50 1015.30 1015.14 1014.94 1014.74 1014.58 1014.34 1014.14 1013.94 1013.74 1013.54 1013.30 1013.14 1012.94 1012.70 1012.54 1012.34 1012.14 1011.90 1011.74 1011.54 1011.34 1011.18 1011.02 1010.86 1010.74 1010.66 1010.54 1010.42 1010.26 1010.10 1009.98 1009.82 1009.66 1009.50 1009.34 1009.26 1009.14 1009.06 1008.94 1008.86 1008.78 1008.78 1008.74 1008.74 1008.70 1008.70 1008.70 1008.70 1008.74 1008.70 1008.70 1008.74 1008.74 1008.74 1008.78
1017.66 1017.54 1017.38 1017.18 1017.02 1016.86 1016.70 1016.50 1016.30 1016.10 1015.90 1015.70 1015.50 1015.30 1015.14 1014.94 1014.70 1014.50 1014.30 1014.10 1013.90 1013.70 1013.50 1013.30 1013.10 1012.86 1012.70 1012.50 1012.30 1012.14 1011.90 1011.70 1011.42 1011.26 1011.06 1010.90 1010.74 1010.62 1010.50 1010.42 1010.30 1010.14 1010.02 1009.86 1009.66 1009.50 1009.30 1009.14 1009.02 1008.86 1008.78 1008.70 1008.62 1008.54 1008.46 1008.42 1008.42 1008.38 1008.34 1008.30 1008.34 1008.38 1008.42 1008.42 1008.42 1008.42 1008.46 1008.46 1008.50
1017.54 1017.38 1017.22 1017.10 1016.90 1016.70 1016.54 1016.34 1016.14 1015.94 1015.74 1015.50 1015.30 1015.10 1014.90 1014.70 1014.50 1014.30 1014.06 1013.82 1013.66 1013.46 1013.30 1013.10 1012.86 1012.66 1012.42 1012.22 1012.02 1011.82 1011.66 1011.42 1011.18 1010.98 1010.78 1010.62 1010.46 1010.34 1010.26 1010.14 1010.02 1009.86 1009.74 1009.50 1009.30 1009.06 1008.90 1008.70 1008.58 1008.42 1008.38 1008.30 1008.30 1008.22 1008.14 1008.10 1008.06 1008.02 1008.02 1007.98 1008.02 1008.02 1008.02 1008.02 1008.06 1008.06 1008.10 1008.14 1008.14
1017.42 1017.26 1017.10 1016.94 1016.74 1016.58 1016.42 1016.22 1016.02 1015.74 1015.50 1015.30 1015.14 1014.90 1014.70 1014.50 1014.30 1014.06 1013.86 1013.62 1013.42 1013.30 1013.14 1012.90 1012.66 1012.42 1012.18 1011.94 1011.74 1011.50 1011.34 1011.14 1010.94 1010.74 1010.58 1010.34 1010.14 1010.02 1009.94 1009.82 1009.74 1009.58 1009.38 1009.14 1008.90 1008.70 1008.50 1008.30 1008.14 1008.02 1007.90 1007.86 1007.82 1007.78 1007.74 1007.74 1007.70 1007.66 1007.62 1007.58 1007.58 1007.62 1007.66 1007.66 1007.66 1007.66 1007.70 1007.78 1007.86
1017.30 1017.14 1016.98 1016.78 1016.62 1016.42 1016.26 1016.02 1015.82 1015.58 1015.38 1015.14 1014.98 1014.74 1014.54 1014.30 1014.10 1013.86 1013.66 1013.42 1013.30 1013.06 1012.86 1012.62 1012.38 1012.14 1011.86 1011.66 1011.42 1011.22 1011.02 1010.86 1010.70 1010.46 1010.30 1010.10 1009.90 1009.74 1009.58 1009.46 1009.34 1009.22 1009.02 1008.78 1008.54 1008.30 1008.14 1007.90 1007.70 1007.54 1007.46 1007.42 1007.42 1007.34 1007.30 1007.30 1007.30 1007.30 1007.30 1007.30 1007.30 1007.30 1007.30 1007.30 1007.30 1007.34 1007.38 1007.46 1007.54
1017.18 1017.02 1016.86 1016.70 1016.54 1016.34 1016.14 1015.90 1015.70 1015.46 1015.26 1015.02 1014.82 1014.58 1014.38 1014.14 1013.90 1013.74 1013.50 1013.26 1013.06 1012.86 1012.58 1012.30 1012.06 1011.86 1011.62 1011.38 1011.18 1010.94 1010.70 1010.54 1010.38 1010.14 1009.98 1009.78 1009.58 1009.42 1009.30 1009.14 1008.98 1008.82 1008.66 1008.42 1008.18 1007.98 1007.74 1007.54 1007.30 1007.14 1007.02 1007.02 1007.02 1007.02 1006.94 1006.94 1006.94 1006.98 1006.94 1006.94 1006.94 1006.98 1006.98 1006.98 1007.02 1007.10 1007.14 1007.22 1007.30
1017.10 1016.94 1016.78 1016.58 1016.42 1016.22 1016.02 1015.78 1015.58 1015.38 1015.14 1014.90 1014.66 1014.42 1014.22 1014.02 1013.78 1013.54 1013.30 1013.02 1012.82 1012.58 1012.30 1012.02 1011.78 1011.54 1011.34 1011.14 1010.86 1010.62 1010.42 1010.22 1010.02 1009.86 1009.66 1009.46 1009.30 1009.10 1008.94 1008.78 1008.62 1008.42 1008.26 1008.02 1007.82 1007.58 1007.38 1007.14 1006.98 1006.82 1006.70 1006.58 1006.62 1006.58 1006.58 1006.58 1006.66 1006.66 1006.58 1006.54 1006.50 1006.54 1006.58 1006.70 1006.78 1006.86 1006.98 1007.06 1007.10
1017.02 1016.86 1016.70 1016.54 1016.30 1016.10 1015.86 1015.70 1015.50 1015.30 1015.02 1014.82 1014.58 1014.30 1014.06 1013.86 1013.58 1013.34 1013.06 1012.82 1012.58 1012.30 1012.06 1011.82 1011.54 1011.30 1011.06 1010.86 1010.58 1010.34 1010.14 1009.94 1009.74 1009.58 1009.34 1009.14 1008.94 1008.74 1008.58 1008.38 1008.18 1008.02 1007.86 1007.66 1007.42 1007.22 1007.02 1006.82 1006.58 1006.46 1006.38 1006.30 1006.22 1006.18 1006.18 1006.22 1006.30 1006.30 1006.30 1006.30 1006.14 1006.18 1006.30 1006.42 1006.50 1006.62 1006.74 1006.82 1006.82
1016.94 1016.78 1016.62 1016.42 1016.22 1016.02 1015.78 1015.58 1015.42 1015.18 1014.94 1014.70 1014.42 1014.18 1013.94 1013.70 1013.42 1013.14 1012.86 1012.58 1012.30 1012.02 1011.74 1011.50 1011.30 1011.02 1010.74 1010.54 1010.30 1010.10 1009.86 1009.62 1009.42 1009.26 1009.06 1008.86 1008.58 1008.34 1008.14 1007.94 1007.78 1007.62 1007.42 1007.26 1007.06 1006.86 1006.66 1006.42 1006.30 1006.14 1006.02 1005.94 1005.90 1005.86 1005.86 1005.86 1005.98 1006.06 1006.06 1006.06 1006.02 1006.02 1006.02 1006.14 1006.22 1006.26 1006.30 1006.38 1006.42
1016.90 1016.74 1016.58 1016.38 1016.14 1015.90 1015.70 1015.50 1015.30 1015.06 1014.82 1014.58 1014.30 1014.02 1013.78 1013.50 1013.18 1012.90 1012.62 1012.34 1012.02 1011.74 1011.42 1011.22 1011.02 1010.70 1010.42 1010.22 1010.02 1009.78 1009.54 1009.30 1009.10 1008.90 1008.70 1008.46 1008.22 1007.98 1007.74 1007.50 1007.30 1007.14 1007.02 1006.90 1006.70 1006.46 1006.26 1006.10 1005.90 1005.78 1005.70 1005.62 1005.58 1005.54 1005.54 1005.62 1005.74 1005.78 1005.86 1005.86 1005.86 1005.86 1005.86 1005.90 1005.94 1005.94 1006.02 1006.06 1006.18
1016.86 1016.70 1016.50 1016.30 1016.06 1015.86 1015.58 1015.38 1015.18 1014.94 1014.66 1014.42 1014.14 1013.86 1013.58 1013.26 1012.90 1012.58 1012.30 1012.06 1011.78 1011.50 1011.26 1010.98 1010.70 1010.42 1010.14 1009.90 1009.62 1009.38 1009.14 1008.94 1008.70 1008.46 1008.26 1008.02 1007.78 1007.54 1007.30 1007.06 1006.90 1006.78 1006.62 1006.46 1006.30 1006.10 1005.86 1005.74 1005.58 1005.46 1005.34 1005.30 1005.26 1005.22 1005.26 1005.34 1005.46 1005.58 1005.58 1005.66 1005.70 1005.70 1005.70 1005.70 1005.74 1005.74 1005.82 1005.86 1005.98
1016.82 1016.62 1016.42 1016.18 1016.02 1015.74 1015.50 1015.26 1015.02 1014.74 1014.50 1014.22 1013.90 1013.62 1013.34 1013.02 1012.66 1012.34 1012.06 1011.82 1011.54 1011.30 1011.02 1010.70 1010.46 1010.22 1009.94 1009.66 1009.38 1009.10 1008.82 1008.54 1008.30 1008.02 1007.82 1007.58 1007.34 1007.14 1006.90 1006.70 1006.54 1006.42 1006.26 1006.10 1005.90 1005.74 1005.54 1005.38 1005.22 1005.10 1005.02 1004.94 1004.94 1004.98 1005.02 1005.10 1005.22 1005.30 1005.34 1005.34 1005.42 1005.42 1005.46 1005.50 1005.54 1005.58 1005.66 1005.74 1005.82
1016.74 1016.58 1016.34 1016.10 1015.86 1015.66 1015.38 1015.14 1014.86 1014.54 1014.26 1013.98 1013.66 1013.34 1013.06 1012.78 1012.46 1012.14 1011.86 1011.58 1011.30 1011.02 1010.70 1010.46 1010.26 1009.98 1009.70 1009.34 1009.06 1008.82 1008.50 1008.14 1007.82 1007.58 1007.38 1007.14 1006.98 1006.74 1006.54 1006.30 1006.18 1006.06 1005.94 1005.74 1005.54 1005.38 1005.22 1005.02 1004.90 1004.78 1004.70 1004.62 1004.70 1004.70 1004.78 1004.86 1004.94 1005.02 1005.06 1005.10 1005.14 1005.18 1005.26 1005.30 1005.38 1005.42 1005.54 1005.62 1005.70
1016.70 1016.50 1016.30 1016.02 1015.74 1015.50 1015.22 1014.94 1014.62 1014.34 1014.06 1013.74 1013.42 1013.10 1012.78 1012.54 1012.22 1011.98 1011.70 1011.34 1011.02 1010.74 1010.46 1010.22 1009.94 1009.66 1009.34 1009.02 1008.70 1008.42 1008.14 1007.82 1007.50 1007.22 1007.02 1006.86 1006.66 1006.42 1006.14 1005.98 1005.82 1005.74 1005.58 1005.42 1005.26 1005.06 1004.90 1004.74 1004.58 1004.46 1004.38 1004.42 1004.42 1004.50 1004.54 1004.58 1004.66 1004.74 1004.86 1004.86 1004.90 1004.94 1005.02 1005.06 1005.14 1005.30 1005.42 1005.46 1005.54
1016.66 1016.42 1016.18 1015.90 1015.62 1015.34 1015.02 1014.74 1014.42 1014.14 1013.82 1013.50 1013.18 1012.90 1012.58 1012.30 1011.98 1011.70 1011.42 1011.14 1010.86 1010.54 1010.22 1009.94 1009.62 1009.30 1008.98 1008.70 1008.34 1008.06 1007.82 1007.54 1007.26 1006.98 1006.70 1006.46 1006.30 1006.10 1005.86 1005.66 1005.50 1005.38 1005.30 1005.14 1004.98 1004.78 1004.62 1004.46 1004.34 1004.22 1004.14 1004.18 1004.22 1004.26 1004.30 1004.38 1004.42 1004.54 1004.58 1004.62 1004.70 1004.74 1004.82 1004.86 1004.94 1005.06 1005.14 1005.22 1005.30
1016.58 1016.34 1016.10 1015.78 1015.46 1015.14 1014.86 1014.58 1014.26 1013.94 1013.58 1013.30 1012.98 1012.70 1012.38 1012.10 1011.78 1011.46 1011.18 1010.94 1010.70 1010.34 1009.98 1009.62 1009.30 1009.02 1008.66 1008.38 1008.06 1007.74 1007.42 1007.22 1006.98 1006.70 1006.42 1006.18 1006.02 1005.86 1005.66 1005.42 1005.18 1005.06 1005.02 1004.86 1004.70 1004.50 1004.34 1004.18 1004.06 1003.98 1003.94 1003.94 1003.98 1004.02 1004.10 1004.14 1004.26 1004.30 1004.34 1004.38 1004.42 1004.50 1004.58 1004.62 1004.70 1004.82 1004.90 1004.98 1005.02
1016.42 1016.22 1015.98 1015.62 1015.34 1015.02 1014.70 1014.38 1014.06 1013.74 1013.42 1013.10 1012.74 1012.42 1012.14 1011.86 1011.58 1011.30 1011.02 1010.78 1010.54 1010.22 1009.86 1009.42 1009.06 1008.70 1008.38 1008.06 1007.74 1007.42 1007.14 1006.86 1006.66 1006.42 1006.18 1005.98 1005.74 1005.58 1005.34 1005.14 1004.90 1004.78 1004.70 1004.58 1004.42 1004.26 1004.10 1003.94 1003.82 1003.70 1003.66 1003.74 1003.74 1003.78 1003.86 1003.94 1004.02 1004.06 1004.14 1004.14 1004.18 1004.26 1004.34 1004.42 1004.50 1004.58 1004.70 1004.78 1004.70
1016.30 1016.06 1015.78 1015.50 1015.18 1014.86 1014.54 1014.22 1013.90 1013.58 1013.26 1012.94 1012.62 1012.30 1012.02 1011.74 1011.42 1011.14 1010.86 1010.58 1010.30 1010.02 1009.66 1009.30 1008.86 1008.50 1008.14 1007.86 1007.54 1007.18 1006.86 1006.58 1006.34 1006.14 1005.90 1005.70 1005.42 1005.22 1005.02 1004.82 1004.62 1004.50 1004.42 1004.34 1004.22 1004.06 1003.90 1003.74 1003.58 1003.46 1003.42 1003.46 1003.50 1003.58 1003.62 1003.74 1003.82 1003.86 1003.94 1003.98 1004.02 1004.10 1004.18 1004.26 1004.34 1004.42 1004.54 1004.62 1004.58
1016.14 1015.86 1015.62 1015.30 1015.02 1014.70 1014.38 1014.06 1013.74 1013.38 1013.10 1012.82 1012.54 1012.22 1011.86 1011.54 1011.26 1010.98 1010.70 1010.38 1010.10 1009.78 1009.42 1009.06 1008.66 1008.30 1008.02 1007.70 1007.38 1007.02 1006.62 1006.30 1006.02 1005.78 1005.58 1005.30 1005.10 1004.90 1004.70 1004.58 1004.42 1004.30 1004.22 1004.14 1004.02 1003.90 1003.74 1003.58 1003.42 1003.30 1003.26 1003.30 1003.30 1003.34 1003.42 1003.58 1003.62 1003.74 1003.82 1003.86 1003.94 1004.02 1004.10 1004.18 1004.26 1004.30 1004.38 1004.46 1004.50
Wind_Speed
5 5 5 5 5 5 4 4 5 5 5 4 5 5 5 5 6 6 6 5 6 6 6 6 6 7 8 8 9 9 10 10 10 10 11 12 11 11 11 11 10 10 11 11 11 10 9 9 8 7 6 6 7 7 7 6 7 7 8 7 7 7 7 9 8 8 8 9 7
6 6 6 6 6 5 5 5 5 5 5 4 5 5 5 5 6 6 6 6 6 6 6 6 7 7 8 10 10 10 10 10 11 11 11 11 11 11 11 11 11 11 11 11 10 9 9 9 8 7 7 6 7 7 7 7 7 8 9 9 8 7 7 8 8 8 8 8 7
6 6 5 5 5 5 5 5 5 6 6 5 5 5 5 5 6 6 6 6 6 6 6 7 7 8 8 10 10 9 10 10 11 11 11 11 11 12 12 11 11 12 12 12 11 10 9 9 9 8 8 7 8 8 8 8 8 8 9 10 8 7 7 7 7 7 7 6 6
6 6 5 6 6 6 6 5 6 7 7 6 6 6 5 5 6 6 6 7 7 7 7 7 8 8 9 10 10 10 10 11 11 12 11 11 11 12 12 12 12 12 13 12 11 11 11 10 9 8 8 9 10 9 8 7 8 8 8 8 7 7 8 7 7 6 6 6 6
6 6 6 6 7 7 7 6 7 7 7 6 6 6 6 5 6 6 6 7 7 7 8 8 9 9 10 10 11 11 11 11 12 11 11 11 11 11 12 12 12 12 12 12 12 11 11 11 9 8 8 9 9 9 8 9 9 8 7 7 7 8 8 8 7 6 6 6 5
6 6 6 6 7 7 7 6 7 8 7 6 6 7 7 6 6 7 8 8 9 9 10 10 10 10 10 10 11 11 11 11 10 10 10 11 11 11 11 12 12 12 11 11 11 11 11 10 8 8 8 8 9 10 10 10 9 8 8 8 8 8 8 8 7 7 7 7 7
7 7 7 7 8 8 8 7 7 7 7 7 8 9 9 9 9 9 10 10 9 9 10 10 10 10 10 10 10 10 10 10 10 10 10 10 10 11 11 11 11 11 11 11 11 11 10 9 8 8 8 8 8 9 10 10 9 9 8 8 8 8 9 9 7 7 8 9 9
7 7 7 8 8 8 9 8 8 7 7 7 8 10 11 11 11 11 11 10 10 9 9 8 9 10 10 10 10 10 10 10 10 10 10 10 10 11 11 11 11 11 11 11 11 11 10 9 8 8 8 7 7 7 8 9 10 10 10 9 8 8 8 9 8 8 9 9 9
7 7 8 8 8 8 9 9 8 8 8 9 10 10 11 11 12 12 11 10 10 9 9 8 9 10 10 10 10 10 10 10 10 10 10 10 10 11 11 10 11 11 11 11 11 11 11 10 8 8 8 7 8 8 9 10 11 11 11 10 9 9 9 9 10 11 11 11 10
8 8 8 8 8 9 9 9 9 9 9 10 10 11 11 12 12 11 10 9 10 10 9 8 9 10 10 10 10 10 10 9 10 10 11 11 11 11 11 10 11 11 11 11 11 11 11 10 10 9 9 9 10 11 12 12 13 13 12 10 10 11 11 11 11 12 13 13 12
9 8 8 8 9 9 9 9 9 9 9 10 11 11 11 12 11 11 10 10 10 10 10 9 9 10 10 9 9 10 10 9 10 10 11 11 11 11 11 11 12 12 12 12 11 11 10 10 10 11 11 11 11 12 12 13 13 13 13 11 12 13 14 13 12 12 12 12 13
9 9 9 9 9 9 9 9 9 9 10 10 11 11 11 11 11 11 11 10 10 10 9 9 9 9 10 9 10 10 10 11 11 11 11 12 12 12 12 12 12 13 13 13 12 11 10 11 12 13 13 13 11 10 10 11 11 12 12 13 13 14 14 14 14 12 11 11 12
9 10 10 10 10 10 10 10 9 9 10 11 11 11 10 10 11 11 10 10 10 9 9 9 9 10 10 11 11 11 11 12 12 12 12 12 12 12 12 13 13 13 13 13 12 11 11 11 13 14 15 14 12 11 10 10 10 11 11 11 12 13 14 14 14 12 11 11 12
9 10 10 10 10 10 10 10 10 10 10 11 11 11 10 11 11 11 10 10 10 10 10 10 11 11 11 13 13 13 13 13 13 14 14 13 13 13 13 13 13 13 13 12 11 12 12 12 13 14 15 15 14 13 11 10 10 10 11 11 12 13 14 15 14 13 12 12 12
10 10 10 11 10 10 10 10 10 10 10 11 11 11 11 11 11 11 11 11 12 11 11 11 12 12 13 14 15 15 14 14 14 14 14 15 15 15 14 14 14 14 13 13 12 12 13 13 14 14 14 14 14 13 12 11 11 11 12 13 13 14 14 15 14 13 12 12 12
10 10 11 11 11 11 10 10 9 10 10 11 11 12 12 12 12 12 13 13 13 12 12 13 13 13 13 14 15 15 14 14 14 14 15 15 15 16 16 16 15 15 15 15 14 14 13 13 13 13 14 14 14 14 13 13 12 13 13 14 14 14 14 14 14 13 12 12 12
10 11 11 11 11 11 11 10 10 10 11 12 13 13 13 13 12 13 13 14 13 13 14 15 14 14 14 14 14 14 14 14 14 15 15 16 17 17 17 17 16 16 16 16 15 15 14 14 13 13 13 14 14 14 14 13 12 12 13 13 13 14 14 14 14 14 13 12 12
11 11 11 11 11 11 11 11 11 11 12 13 13 13 13 13 13 13 14 14 14 15 16 17 16 15 15 15 14 13 13 14 15 16 16 17 17 17 17 17 17 17 16 16 16 16 15 15 14 14 14 14 14 14 13 13 12 12 12 13 13 14 14 14 14 14 13 13 13
11 11 10 10 11 11 11 12 12 13 13 13 13 13 14 14 14 14 14 15 15 16 17 17 17 16 15 16 15 15 15 15 17 17 18 18 17 17 17 16 16 16 16 16 16 16 16 16 15 15 15 15 15 14 14 13 12 12 12 13 14 14 14 14 14 13 13 13 13
10 10 10 10 11 11 12 12 13 13 13 13 14 14 14 15 15 15 15 16 16 17 17 17 17 16 16 16 16 16 16 15 16 17 18 17 17 17 16 16 16 16 15 15 15 16 16 16 16 16 16 16 16 16 15 14 13 13 13 13 13 14 14 14 13 13 13 13 13
10 10 10 11 11 11 12 12 13 13 14 14 14 14 15 15 15 15 16 16 17 17 17 17 17 17 17 17 17 16 16 15 15 16 17 17 17 17 17 16 16 16 15 15 15 16 16 16 16 16 16 16 17 16 15 14 13 13 13 13 13 14 14 14 13 13 13 13 13
10 10 10 11 11 12 12 13 13 13 14 14 14 14 15 15 15 16 16 17 17 17 17 16 16 16 16 16 16 16 16 15 15 16 16 16 16 16 16 16 16 16 16 16 16 16 16 17 17 17 16 16 16 16 16 15 14 14 14 14 14 14 14 13 13 13 13 13 13
10 10 10 11 11 12 13 13 13 14 14 14 14 14 15 15 16 16 17 17 17 17 16 16 15 16 16 16 17 17 17 17 16 16 16 16 16 16 16 16 16 16 16 15 15 15 15 16 16 16 16 16 16 16 16 16 15 15 14 14 14 13 13 13 13 12 12 12 12
11 11 11 10 11 12 13 13 13 14 14 14 14 15 15 15 16 16 17 17 17 17 16 15 15 15 16 17 18 18 18 18 17 17 17 16 16 16 16 16 16 16 16 14 15 16 16 14 14 14 14 14 14 14 14 15 15 15 14 14 14 13 13 13 13 13 13 12 12
11 11 11 11 12 12 13 13 14 14 14 15 15 15 15 16 16 17 17 18 17 17 17 16 16 16 17 17 18 18 17 17 17 17 17 17 16 16 16 15 15 14 14 14 19 22 23 21 17 14 13 12 12 13 13 13 14 14 14 14 14 14 13 14 14 14 14 13 12
11 12 12 12 12 12 13 14 14 15 15 15 15 15 16 16 17 17 18 18 17 17 17 17 17 17 17 17 17 17 17 16 16 16 17 17 17 17 16 15 14 13 13 16 21 25 27 27 25 21 17 13 12 12 12 11 12 13 13 14 14 14 14 14 14 14 14 13 13
11 12 12 12 12 13 13 14 15 15 16 16 16 16 17 17 17 17 18 18 17 17 17 17 17 17 17 16 17 17 17 16 16 17 17 17 17 17 17 16 14 13 14 19 24 27 29 29 29 27 23 16 13 12 12 11 11 11 12 13 13 14 14 14 14 14 13 13 12
11 11 12 12 13 13 14 15 15 16 16 16 17 17 17 18 18 18 18 17 18 17 17 16 15 14 13 13 15 16 17 18 17 17 17 17 17 18 17 16 15 15 18 23 27 29 30 30 29 29 26 20 15 13 12 12 11 10 10 11 12 13 14 14 13 12 12 12 11
11 11 12 12 13 14 15 15 16 16 17 17 17 18 18 18 18 18 18 18 19 18 16 14 14 13 12 13 15 17 18 19 18 17 17 17 18 18 17 17 16 18 21 26 29 29 30 29 29 29 27 24 16 11 9 9 9 8 9 9 10 11 12 11 10 10 10 10 10
11 11 12 13 14 15 16 16 16 16 17 16 17 18 19 19 19 19 19 19 19 18 16 15 14 14 15 16 17 17 17 17 17 17 17 19 19 19 18 18 17 18 20 25 28 29 29 29 28 28 27 26 20 14 10 8 7 7 7 8 9 10 10 10 10 10 10 10 10
11 12 13 14 15 16 16 16 16 17 17 17 18 19 19 19 19 19 19 19 18 18 18 17 18 18 18 18 18 17 18 17 17 17 17 18 20 20 20 19 18 19 21 25 27 28 28 28 27 27 26 26 20 15 10 8 7 6 6 7 7 8 9 9 11 11 12 11 10
12 13 14 15 16 16 16 17 17 17 18 18 19 19 20 20 19 19 19 18 19 19 19 18 19 19 19 19 18 18 18 18 18 18 18 18 19 20 20 19 19 19 21 25 26 27 27 27 26 26 26 25 21 16 11 8 7 6 7 7 8 8 8 9 9 11 11 11 10
13 13 14 15 16 16 17 17 17 18 18 19 19 20 20 20 19 19 19 18 18 18 18 18 19 19 19 19 19 19 19 19 19 19 20 20 20 20 20 19 17 17 20 24 25 26 26 25 25 25 25 24 20 15 10 8 6 5 6 7 7 8 9 10 9 10 10 10 9
13 14 15 16 16 17 17 17 18 18 19 19 20 20 20 20 20 20 19 18 18 17 17 17 18 18 18 18 18 19 19 19 19 19 20 20 19 20 19 17 14 15 19 23 25 25 25 25 25 25 24 24 18 12 9 7 6 5 6 7 7 8 8 9 9 9 9 9 9
14 15 16 16 16 17 17 18 18 19 19 20 20 20 20 19 20 19 19 19 19 18 17 17 17 17 17 18 18 19 20 21 20 20 20 19 18 18 18 16 14 16 20 24 25 26 26 25 25 24 23 21 14 10 7 6 5 6 6 7 7 7 8 8 8 8 9 9 9
14 15 16 17 17 17 18 18 19 19 20 20 20 20 19 19 19 18 18 19 19 18 17 17 17 17 18 18 18 18 19 20 20 20 19 18 17 17 16 15 15 17 20 24 25 25 25 25 24 23 21 17 11 8 6 5 5 5 6 7 7 7 8 8 8 8 9 9 9
14 15 16 17 18 18 18 18 19 19 20 20 20 20 19 19 18 18 17 17 17 17 17 17 18 18 19 19 18 18 18 18 18 18 18 17 17 16 15 15 15 17 19 22 24 24 24 24 23 22 19 14 9 7 6 5 4 5 6 7 7 7 7 7 8 8 9 10 10
15 15 16 17 18 18 18 18 19 20 20 20 20 19 19 18 17 17 17 17 16 16 17 18 18 19 19 19 19 18 18 17 17 18 17 17 16 16 16 16 15 15 16 19 21 22 23 23 22 21 18 12 9 7 5 4 4 5 6 6 6 6 7 6 6 7 8 10 12
15 15 16 17 18 18 19 19 19 20 20 20 20 19 18 18 16 16 16 17 16 16 17 18 19 19 19 20 19 18 18 18 18 18 17 17 17 17 17 17 15 14 14 17 20 22 22 22 21 20 18 13 9 7 5 4 4 5 5 5 5 6 6 5 5 5 6 8 13
15 15 16 17 18 18 19 19 20 20 19 19 19 19 18 18 17 17 17 16 16 16 17 17 19 19 19 19 19 18 18 18 17 17 17 17 17 18 19 18 15 14 14 17 19 21 22 21 21 20 17 12 9 6 4 4 4 5 5 5 5 5 5 5 5 5 5 6 10
15 15 16 17 18 18 19 20 20 19 19 18 18 18 17 17 17 17 16 16 16 16 16 15 17 19 19 19 18 18 18 19 18 17 17 17 17 17 17 16 14 13 13 15 18 20 21 21 20 19 17 12 8 5 4 3 4 4 5 4 4 4 4 4 4 4 5 5 6
Wind_Direction
291 290 290 291 292 293 292 292 292 292 292 293 294 295 295 296 295 295 294 295 294 294 294 294 294 294 295 295 294 294 293 293 292 290 289 289 288 286 284 283 280 279 277 276 275 275 275 274 275 275 276 276 278 278 279 279 280 280 278 276 274 272 268 265 262 257 253 249 248
292 289 289 291 295 296 296 296 295 294 294 292 292 292 293 292 293 293 293 292 291 292 292 293 293 293 293 293 293 293 294 294 293 293 292 292 291 289 288 286 284 282 280 278 276 275 274 273 273 273 273 273 273 274 275 276 277 278 278 276 274 273 270 267 263 258 254 250 249
292 291 292 293 294 294 295 296 294 292 291 290 289 290 290 290 290 290 290 289 289 289 290 291 291 291 291 292 292 292 292 292 293 294 294 293 293 293 293 292 291 289 288 286 283 281 279 278 276 275 275 274 272 272 273 274 275 277 277 277 276 275 273 271 267 262 257 254 251
293 292 292 291 289 287 287 290 291 291 290 290 289 288 288 287 287 287 287 287 288 288 288 288 289 290 290 290 290 290 290 290 291 292 293 293 294 295 295 296 295 295 294 292 289 287 285 282 281 279 278 277 274 272 270 271 272 273 275 277 276 275 275 274 271 268 264 260 255
293 290 288 288 286 284 284 285 288 288 289 290 291 290 289 287 287 287 287 288 287 286 286 286 287 288 288 287 288 288 288 288 290 291 291 292 292 293 294 294 294 295 294 294 292 290 289 287 285 284 283 283 281 277 273 271 270 271 274 277 276 275 273 272 271 269 267 264 261
293 291 288 287 286 285 286 287 285 286 287 290 290 289 289 288 288 288 288 287 286 285 285 285 285 286 286 286 286 286 287 288 288 289 289 289 290 290 291 291 292 293 294 295 294 294 293 292 290 288 287 287 287 285 283 279 276 275 277 279 281 280 277 272 269 266 263 263 263
291 291 290 288 288 287 288 287 287 287 288 289 289 288 287 286 286 286 285 285 286 286 286 285 285 285 285 285 286 286 287 287 287 287 287 287 288 289 290 290 291 292 293 295 296 296 295 294 292 289 286 284 283 284 285 285 282 278 274 273 276 280 283 282 278 272 265 262 262
291 290 289 289 288 288 287 286 287 288 289 289 288 287 286 286 285 285 285 285 285 285 285 285 284 283 283 284 285 285 286 287 287 287 287 287 288 289 290 290 291 292 292 294 295 295 295 294 290 286 283 278 273 272 272 274 272 269 266 264 264 269 276 286 290 288 280 268 261
295 293 291 290 288 287 286 286 285 286 287 287 286 285 285 285 285 285 285 285 284 284 283 284 283 283 283 283 284 285 286 287 288 289 289 288 289 290 290 291 291 291 291 291 291 291 291 291 287 284 280 276 272 267 263 261 260 260 259 259 259 259 261 268 281 288 289 283 268
297 295 294 293 291 288 287 288 287 286 286 286 285 285 284 285 285 285 284 283 284 284 283 283 283 284 284 284 285 286 287 288 289 290 290 290 289 289 289 289 289 289 289 288 287 287 287 286 284 282 279 276 272 268 265 261 259 257 256 256 256 255 254 253 260 271 280 284 276
296 296 295 295 293 292 292 292 292 291 289 288 288 286 286 286 285 283 282 282 283 283 281 281 282 284 284 285 287 288 290 291 291 291 291 289 288 287 285 285 284 284 283 283 283 283 282 281 279 278 277 275 273 269 266 262 260 259 258 258 257 256 254 251 250 254 261 271 275
298 298 297 297 296 296 296 295 295 294 292 291 290 289 288 285 283 282 281 281 281 281 281 281 283 285 287 290 291 292 293 293 292 291 290 288 286 284 282 281 280 279 278 278 278 278 277 275 275 274 274 273 271 269 265 260 259 259 260 261 261 259 256 253 250 249 250 256 266
301 301 301 301 300 300 299 298 297 296 294 293 292 291 289 287 284 283 283 283 283 285 288 289 291 292 293 295 295 295 295 294 293 291 290 288 287 285 283 281 279 278 277 276 275 274 273 272 271 271 271 271 269 266 262 257 255 255 257 261 264 264 262 258 253 251 250 252 258
304 304 304 303 303 303 302 301 299 298 297 296 294 293 292 291 290 291 291 292 294 296 298 299 299 298 298 298 297 296 295 293 293 291 290 289 288 286 284 282 280 278 277 276 273 271 270 269 268 269 269 269 267 264 260 254 252 252 253 256 260 264 264 262 258 254 251 251 254
306 306 305 305 305 304 303 303 302 301 301 299 299 299 299 299 301 303 304 305 304 304 303 303 302 300 299 298 297 295 294 292 291 290 289 288 287 286 284 283 281 279 278 276 274 270 268 267 266 266 266 266 265 263 259 254 252 251 251 253 255 257 260 262 260 257 253 252 255
307 307 307 307 306 305 305 305 304 305 305 305 306 307 308 309 310 311 311 310 308 306 305 304 303 301 300 298 296 295 293 292 290 289 288 287 286 285 284 283 282 281 279 277 275 272 269 266 265 264 264 263 263 261 259 256 254 253 252 253 253 252 253 256 257 256 255 255 257
308 308 308 307 307 307 307 307 308 309 310 311 312 313 313 313 313 312 310 309 308 306 305 304 303 302 300 298 296 295 293 291 290 288 287 286 286 285 284 284 283 282 281 279 277 275 271 268 265 263 262 262 262 260 259 257 255 253 252 251 250 248 248 250 253 254 254 253 253
308 308 308 308 309 309 310 311 312 313 313 314 314 314 313 312 310 309 308 308 307 306 305 303 302 301 299 298 296 295 293 292 290 289 288 287 286 286 285 284 284 283 282 281 279 276 273 270 267 265 264 264 263 261 259 257 254 253 251 250 248 247 247 248 250 250 250 248 247
308 309 309 310 311 312 313 314 314 314 314 313 313 311 310 309 308 307 307 307 306 305 304 302 301 299 298 297 296 294 293 291 290 289 288 287 286 285 285 284 283 283 282 281 279 277 275 272 270 268 267 265 264 262 260 257 255 253 251 250 249 248 247 246 245 245 243 241 241
308 309 310 311 313 313 314 314 313 313 312 311 310 309 308 307 307 307 306 306 305 303 302 300 299 298 296 295 294 293 292 290 290 288 287 286 286 285 284 283 283 282 282 281 280 278 276 274 271 269 267 266 265 263 261 259 256 254 253 252 251 249 247 244 242 240 238 237 236
308 309 311 312 313 313 313 312 311 310 309 308 307 306 306 306 306 306 305 304 302 301 299 297 296 296 295 295 294 293 291 290 289 288 287 286 285 284 284 284 284 284 284 283 282 279 277 274 271 268 266 265 264 263 261 259 257 255 254 253 252 250 247 244 241 239 237 235 234
308 310 311 312 312 311 310 309 309 308 307 306 305 305 305 305 305 303 302 301 300 298 297 296 295 295 294 294 294 294 293 292 290 289 288 287 286 285 285 285 285 285 285 284 282 279 276 272 269 266 264 263 262 261 259 257 256 255 254 253 251 249 247 244 241 239 237 236 235
308 310 310 310 309 309 308 307 307 306 305 304 304 304 304 304 303 301 300 299 298 297 296 295 294 294 294 295 295 295 295 294 292 290 288 287 286 285 285 285 285 284 283 283 281 278 275 272 269 266 264 262 261 260 258 256 255 255 254 252 249 247 245 243 242 240 239 237 236
309 309 309 309 308 307 307 306 306 305 304 304 304 304 304 303 302 301 300 299 297 297 296 295 295 295 295 295 295 295 295 294 292 290 288 286 285 284 284 283 283 282 281 280 278 277 275 272 268 265 262 260 259 258 256 254 253 253 252 249 247 245 243 242 241 240 239 238 236
308 308 308 307 307 306 306 306 306 305 305 305 305 304 304 303 302 302 301 300 299 297 296 295 295 295 295 295 295 294 293 292 291 290 288 286 284 283 282 282 281 280 279 278 277 277 276 275 272 269 265 262 260 258 255 253 251 249 247 245 243 242 242 241 241 239 238 237 236
308 308 307 307 307 307 307 307 306 306 306 306 306 305 304 304 303 303 302 301 299 298 296 295 295 295 295 295 294 293 291 290 288 287 286 285 283 281 280 280 279 278 278 277 278 278 278 277 276 274 271 268 264 262 260 257 251 246 243 240 239 239 239 240 239 238 237 238 237
308 308 308 308 309 309 308 308 308 308 308 308 307 307 306 305 305 304 302 300 298 297 296 295 295 295 295 294 292 291 289 287 286 284 283 282 281 280 279 279 278 278 277 278 279 279 279 279 278 277 276 273 270 268 267 265 257 248 241 237 236 236 236 238 238 238 238 240 240
309 309 310 312 312 312 311 311 311 311 310 310 309 308 307 307 305 303 301 299 298 297 297 296 295 295 294 292 290 288 287 285 284 283 282 281 280 279 278 277 277 276 276 278 279 280 280 280 280 280 279 278 275 272 272 272 266 256 244 235 232 232 233 234 236 237 239 242 243
311 313 315 316 315 314 314 314 313 312 311 311 310 309 308 307 305 302 300 299 299 299 298 297 296 294 292 289 287 287 286 285 284 284 282 281 280 278 277 276 275 275 276 278 279 280 280 280 280 280 281 281 279 275 273 272 269 261 248 235 228 225 226 228 231 234 237 242 242
316 318 319 318 317 316 315 314 313 313 312 311 311 310 308 306 304 302 301 300 300 299 297 296 294 292 290 288 287 287 286 285 285 283 282 281 280 279 277 276 274 274 275 278 280 280 280 280 279 279 280 280 279 277 273 268 264 259 252 241 227 220 217 219 222 226 230 234 235
321 322 321 319 317 316 315 314 313 313 312 311 310 309 307 305 303 302 301 300 299 298 297 295 293 291 289 287 287 286 286 285 284 282 281 280 279 278 277 275 273 272 274 277 279 280 280 280 279 278 278 278 278 276 273 268 261 258 254 249 231 219 214 214 218 220 222 224 226
324 323 321 319 317 316 315 314 314 313 311 310 309 307 306 304 302 301 300 300 299 299 298 296 294 292 290 289 287 286 284 284 283 281 279 278 277 276 276 274 272 271 273 275 277 279 280 280 279 278 277 277 276 274 271 268 261 258 256 256 244 230 220 219 222 222 222 221 221
325 323 321 318 317 316 315 314 313 312 311 309 308 306 305 303 302 301 301 301 300 299 298 296 294 293 291 290 288 286 284 283 282 280 278 277 275 275 274 273 271 271 272 274 277 279 281 282 281 280 278 276 275 273 271 268 261 253 249 249 242 233 228 227 228 228 225 223 222
324 322 320 318 316 315 314 313 312 311 310 308 307 305 304 303 302 302 302 302 301 299 297 295 293 291 290 288 287 285 284 284 282 280 278 276 275 274 273 272 270 271 273 275 278 281 283 284 282 281 278 276 274 272 270 267 255 242 234 232 230 229 229 229 229 228 226 224 223
323 321 319 317 316 314 313 312 311 310 309 308 306 305 304 302 303 303 302 302 301 299 297 294 292 290 288 287 285 284 283 283 283 281 280 279 277 276 274 272 271 272 275 279 281 283 284 285 283 281 279 276 273 270 265 258 244 232 224 222 222 223 224 224 224 225 225 225 224
322 320 318 316 314 313 312 311 310 309 308 307 306 305 304 304 303 303 302 302 301 299 297 295 294 292 290 288 286 285 284 283 283 282 282 282 281 280 278 275 274 276 279 282 284 285 285 285 284 282 279 275 272 266 259 250 238 228 222 219 219 220 220 218 218 220 222 224 223
320 318 316 314 313 311 311 310 309 309 308 307 306 306 305 305 304 304 303 304 302 300 298 297 296 294 292 291 290 288 287 285 284 284 285 286 286 284 283 281 279 280 281 283 284 285 285 285 283 280 278 273 268 262 255 246 235 225 220 218 218 218 217 216 215 217 220 222 221
317 315 313 312 311 311 310 309 309 309 308 307 306 306 306 306 305 305 305 305 303 301 300 299 297 295 294 294 293 292 290 288 288 288 288 289 289 287 286 285 283 282 282 283 284 285 285 284 282 279 275 269 264 258 251 241 231 224 218 215 214 214 212 211 211 214 217 219 222
314 313 312 311 310 310 310 310 309 309 308 308 307 308 308 308 307 306 306 306 304 302 300 298 297 296 296 298 298 297 295 293 292 291 290 290 289 288 287 287 285 284 284 285 287 287 287 286 284 280 275 268 263 255 246 236 231 227 222 214 210 208 207 205 203 206 211 217 225
312 311 311 311 311 311 311 311 310 309 308 308 308 309 309 309 308 307 307 305 303 301 299 297 297 297 299 301 301 301 299 298 295 292 291 289 288 288 288 289 288 287 287 288 289 289 289 289 286 282 277 270 263 255 244 232 232 231 227 218 207 203 202 200 198 198 204 213 224
311 312 313 313 312 312 312 311 310 309 308 308 309 309 309 310 308 308 306 304 303 302 300 299 299 300 301 303 303 302 301 300 297 294 292 290 288 288 289 289 288 287 286 285 286 287 287 287 285 282 278 272 266 254 236 224 230 230 227 217 207 200 198 197 196 197 199 205 218